TURKSAT 5B

Last updated on Fri Jun 19 2026 17:09:34 GMT+0000 (Coordinated Universal Time)

1 50212U 21126A 26170.11708522 .00000140 00000+0 00000+0 0 9997 2 50212 0.0673 343.7991 0003234 12.4246 355.2631 1.00271147 16314
UTC large
Height (km)
Speed (km/s)
/
Latitude / Longitude
Inclination (degrees)
Orbital Period (minutes)
Azimuth
Elevation
Range (km)
Doppler Factor

Next 0 passes for location: London (51.5072 / 0.1276)

No passes found over London.
TURKSAT 5B